GW5978 Weather Reports


Display with metric or nautical units.
time (UTC)temp
F
wind
direction
speed
MPH
gust
MPH
rain 1hr
in
rain 24hr
in
rain mn
in
humidity
%
barometer
mb
20260510225514 66 185 2.0 2.0 0.00 0.00 0.00 80 1012.9
20260510225013 66 224 0.0 0.0 0.00 0.00 0.00 81 1012.9
20260510224515 66 224 0.0 0.0 0.00 0.00 0.00 81 1012.9
20260510224014 66 135 0.0 1.0 0.00 0.00 0.00 80 1012.9
20260510223515 66 67 1.0 1.0 0.00 0.00 0.00 82 1012.5
20260510223015 66 120 0.0 0.0 0.00 0.00 0.00 82 1012.5
20260510222514 67 297 0.0 0.0 0.00 0.00 0.00 79 1012.5
20260510222014 67 297 0.0 0.0 0.00 0.00 0.00 79 1012.9
20260510221516 67 297 0.0 0.0 0.00 0.00 0.00 79 1012.5
20260510221014 67 297 0.0 0.0 0.00 0.00 0.00 79 1012.9
20260510220514 67 297 0.0 0.0 0.00 0.00 0.00 79 1012.9
20260510220018 67 297 0.0 0.0 0.00 0.00 0.00 79 1012.9
20260510215514 67 297 0.0 0.0 0.00 0.00 0.00 79 1012.9
20260510215013 67 297 0.0 0.0 0.00 0.00 0.00 79 1012.9
20260510214513 67 297 0.0 0.0 0.00 0.00 0.00 79 1012.9
20260510214014 67 297 0.0 0.0 0.00 0.00 0.00 79 1012.9
20260510213515 67 297 0.0 0.0 0.00 0.00 0.00 79 1012.9
20260510213014 67 297 0.0 0.0 0.00 0.00 0.00 79 1012.5
20260510212514 67 297 0.0 0.0 0.00 0.00 0.00 79 1012.5
20260510212014 67 297 0.0 0.0 0.00 0.00 0.00 79 1012.9
20260510211514 67 297 0.0 0.0 0.00 0.00 0.00 79 1012.5
20260510211013 67 297 0.0 0.0 0.00 0.00 0.00 79 1012.5
20260510210521 67 297 0.0 0.0 0.00 0.00 0.00 79 1012.5
20260510210014 67 205 0.0 0.0 0.00 0.00 0.00 80 1012.5
20260510205516 67 205 0.0 0.0 0.00 0.00 0.00 80 1012.5
20260510205013 67 297 0.0 0.0 0.00 0.00 0.00 77 1012.2
20260510204514 67 175 0.0 2.0 0.00 0.00 0.00 78 1012.2
20260510204013 67 164 0.0 0.0 0.00 0.00 0.00 76 1012.5
20260510203517 67 309 0.0 1.0 0.00 0.00 0.00 76 1012.2
20260510203015 67 336 0.0 2.0 0.00 0.00 0.00 77 1012.2
20260510202513 67 158 0.0 2.0 0.00 0.00 0.00 76 1012.5
20260510202013 67 164 0.0 1.0 0.00 0.00 0.00 75 1012.5
20260510201514 66 180 0.0 0.0 0.00 0.00 0.00 76 1012.5
20260510201015 66 180 0.0 0.0 0.00 0.00 0.00 76 1012.2
20260510200514 66 327 0.0 3.0 0.00 0.00 0.00 77 1012.2
20260510200014 63 327 0.0 1.0 0.00 0.00 0.00 79 1012.2
20260510195514 65 33 1.0 4.0 0.00 0.00 0.00 79 1012.2
20260510195014 65 341 0.0 2.0 0.00 0.00 0.00 77 1012.5
20260510194515 66 61 1.0 2.0 0.00 0.00 0.00 77 1012.5
20260510194016 65 217 0.0 2.0 0.00 0.00 0.00 79 1012.5
20260510193514 64 331 1.0 2.0 0.00 0.00 0.00 79 1012.5
20260510193014 65 190 1.0 2.0 0.00 0.00 0.00 79 1012.5
20260510192514 66 21 3.0 4.0 0.00 0.00 0.00 78 1012.9
20260510191538 66 203 0.0 1.0 0.00 0.00 0.00 80 1012.9
20260510191015 65 56 0.0 3.0 0.00 0.00 0.00 79 1012.9
20260510190514 66 242 0.0 2.0 0.00 0.00 0.00 80 1012.9
20260510190014 66 181 3.0 3.0 0.00 0.00 0.00 80 1012.9
20260510185513 66 63 0.0 0.0 0.00 0.00 0.00 80 1012.9
20260510185015 66 135 0.0 2.0 0.00 0.00 0.00 78 1012.9
20260510184514 66 173 1.0 3.0 0.00 0.00 0.00 77 1012.9
20260510184014 67 174 0.0 3.0 0.00 0.00 0.00 77 1012.9
20260510183516 66 156 1.0 2.0 0.00 0.00 0.00 78 1012.9
20260510183015 66 178 1.0 3.0 0.00 0.00 0.00 76 1012.9
20260510182513 66 37 0.0 0.0 0.00 0.00 0.00 77 1012.9
20260510182014 67 15 0.0 2.0 0.00 0.00 0.00 77 1012.5
20260510181514 68 176 0.0 1.0 0.00 0.00 0.00 76 1012.9
20260510181014 68 187 0.0 1.0 0.00 0.00 0.00 77 1012.9
20260510180514 68 25 0.0 2.0 0.00 0.00 0.00 72 1012.9
20260510180014 69 187 2.0 2.0 0.00 0.00 0.00 71 1012.9
20260510175513 67 186 0.0 1.0 0.00 0.00 0.00 73 1012.5
20260510175015 68 304 0.0 2.0 0.00 0.00 0.00 72 1012.9
20260510174513 66 152 0.0 2.0 0.00 0.00 0.00 78 1012.9
20260510174014 65 242 0.0 2.0 0.00 0.00 0.00 77 1012.9
20260510173513 65 235 2.0 3.0 0.00 0.00 0.00 78 1013.2
20260510173015 64 123 2.0 4.0 0.00 0.00 0.00 81 1012.9
20260510172513 63 228 1.0 4.0 0.00 0.00 0.00 82 1013.2
20260510172014 63 215 1.0 3.0 0.00 0.00 0.00 82 1012.9
20260510171514 62 325 2.0 3.0 0.00 0.00 0.00 80 1012.9
20260510171013 62 120 1.0 5.0 0.00 0.00 0.00 83 1013.2
20260510170516 61 226 0.0 2.0 0.00 0.00 0.00 86 1012.9
20260510170015 62 239 0.0 3.0 0.00 0.00 0.00 83 1013.2
20260510165514 61 175 2.0 2.0 0.00 0.00 0.00 85 1013.2
20260510165013 61 197 1.0 3.0 0.00 0.00 0.00 85 1013.2
20260510164516 60 218 1.0 2.0 0.00 0.00 0.00 86 1013.2
20260510164014 60 171 0.0 3.0 0.00 0.00 0.00 87 1013.5
20260510163516 59 187 2.0 2.0 0.00 0.00 0.00 90 1013.5
20260510163015 58 50 0.0 2.0 0.00 0.00 0.00 89 1013.5
20260510162517 59 177 1.0 3.0 0.00 0.00 0.00 90 1013.5
20260510162015 59 13 0.0 5.0 0.00 0.00 0.00 91 1013.2
20260510161513 58 157 1.0 3.0 0.00 0.00 0.00 91 1013.5
20260510161016 59 311 0.0 2.0 0.00 0.00 0.00 91 1013.5
20260510160514 59 164 2.0 3.0 0.00 0.00 0.00 92 1013.5
20260510160017 59 202 2.0 2.0 0.00 0.00 0.00 91 1013.5
20260510155513 59 208 0.0 3.0 0.00 0.00 0.00 93 1013.5
20260510155014 58 60 0.0 2.0 0.00 0.00 0.00 94 1013.5
20260510154514 57 149 1.0 2.0 0.00 0.00 0.00 94 1013.5
20260510154015 57 53 1.0 3.0 0.00 0.00 0.00 94 1013.5
20260510153514 56 162 2.0 2.0 0.00 0.00 0.00 95 1013.5
20260510153013 56 126 0.0 3.0 0.00 0.00 0.00 95 1013.5
20260510152515 56 109 0.0 3.0 0.00 0.00 0.00 96 1013.9
20260510152014 56 262 0.0 2.0 0.00 0.00 0.00 96 1013.5
20260510151516 56 281 0.0 2.0 0.00 0.00 0.00 98 1013.5
20260510151013 56 156 0.0 2.0 0.00 0.00 0.00 98 1013.5
20260510150514 55 15 0.0 2.0 0.00 0.00 0.00 98 1013.5
20260510150015 55 176 0.0 2.0 0.00 0.00 0.00 98 1013.5
20260510145517 55 180 1.0 2.0 0.00 0.00 0.00 98 1013.5
20260510145014 55 199 0.0 2.0 0.00 0.00 0.00 99 1013.9
20260510144514 54 304 0.0 2.0 0.00 0.00 0.00 99 1013.9
20260510144014 54 308 0.0 1.0 0.00 0.00 0.00 99 1013.5
20260510143514 53 168 2.0 2.0 0.00 0.00 0.00 99 1013.9
20260510143014 54 52 2.0 2.0 0.00 0.00 0.00 99 1013.5
20260510142514 53 60 0.0 3.0 0.00 0.00 0.00 99 1013.5
20260510142014 53 6 2.0 2.0 0.00 0.00 0.00 99 1013.2
20260510141514 53 293 0.0 1.0 0.00 0.00 0.00 99 1013.2
20260510141013 54 348 1.0 3.0 0.00 0.00 0.00 99 1013.5
20260510140514 54 159 1.0 2.0 0.00 0.00 0.00 99 1013.2
20260510140014 53 172 0.0 1.0 0.00 0.00 0.00 99 1013.2
20260510135513 53 185 0.0 1.0 0.00 0.00 0.00 99 1013.2
20260510135014 53 131 0.0 2.0 0.00 0.00 0.00 99 1013.2
20260510134513 53 229 0.0 2.0 0.00 0.00 0.00 99 1013.2
20260510134014 53 205 0.0 1.0 0.00 0.00 0.00 99 1013.2
20260510133513 53 30 0.0 1.0 0.00 0.00 0.00 99 1013.2
20260510133014 53 5 0.0 2.0 0.00 0.00 0.00 99 1013.2
20260510132513 53 352 0.0 2.0 0.00 0.00 0.00 99 1013.2
20260510132013 53 129 0.0 3.0 0.00 0.00 0.00 99 1012.9
20260510131515 53 10 2.0 2.0 0.00 0.00 0.00 99 1012.9
20260510131015 53 329 0.0 1.0 0.00 0.00 0.00 99 1012.9
20260510130520 53 162 0.0 2.0 0.00 0.00 0.00 99 1013.2
20260510130014 52 45 0.0 2.0 0.00 0.00 0.00 99 1013.2
20260510125514 53 197 1.0 1.0 0.00 0.00 0.00 99 1012.9
20260510125015 53 217 0.0 1.0 0.00 0.00 0.00 99 1013.2
20260510124514 53 322 0.0 1.0 0.00 0.00 0.00 99 1012.9
20260510124017 53 151 0.0 1.0 0.00 0.00 0.00 99 1012.5
20260510123514 52 229 0.0 1.0 0.00 0.00 0.00 99 1012.9
20260510123014 52 36 0.0 2.0 0.00 0.00 0.00 99 1012.5
20260510122518 52 144 0.0 2.0 0.00 0.00 0.00 99 1012.5
20260510122014 52 185 2.0 2.0 0.00 0.00 0.00 99 1012.5
20260510121514 52 19 1.0 2.0 0.00 0.00 0.00 99 1012.5
20260510121015 52 119 0.0 1.0 0.00 0.00 0.00 99 1012.5
20260510120514 52 28 2.0 2.0 0.00 0.00 0.00 99 1012.2
20260510120014 52 128 0.0 2.0 0.00 0.00 0.00 99 1012.2
20260510115515 52 186 0.0 1.0 0.00 0.00 0.00 99 1012.2
20260510115014 52 52 0.0 3.0 0.00 0.00 0.00 99 1012.5
20260510114514 52 63 2.0 2.0 0.00 0.00 0.00 99 1012.5
20260510114014 51 324 1.0 3.0 0.00 0.00 0.00 99 1012.2
20260510113514 51 224 0.0 2.0 0.00 0.00 0.00 99 1012.2
20260510113013 51 218 0.0 3.0 0.00 0.00 0.00 99 1012.2
20260510112513 51 37 0.0 2.0 0.00 0.00 0.00 99 1011.9
20260510112017 51 303 0.0 3.0 0.00 0.00 0.00 99 1011.9
20260510111516 51 161 0.0 2.0 0.00 0.00 0.00 99 1011.9
20260510111015 51 240 0.0 1.0 0.00 0.00 0.00 99 1011.9
20260510110513 51 189 1.0 2.0 0.00 0.00 0.00 99 1011.9
20260510110014 51 62 0.0 2.0 0.00 0.00 0.00 99 1012.2
20260510105514 51 19 0.0 2.0 0.00 0.00 0.00 99 1011.9
20260510105014 51 19 1.0 1.0 0.00 0.00 0.00 99 1011.9
20260510104514 51 147 0.0 2.0 0.00 0.00 0.00 99 1012.2
20260510104013 51 154 0.0 2.0 0.00 0.00 0.00 99 1011.9
20260510103514 51 235 0.0 0.0 0.00 0.00 0.00 99 1011.9
20260510103014 51 145 0.0 2.0 0.00 0.00 0.00 99 1011.9
20260510102514 51 66 1.0 2.0 0.00 0.00 0.00 99 1011.9
20260510102013 50 353 0.0 2.0 0.00 0.00 0.00 99 1012.2
20260510101520 50 296 0.0 2.0 0.00 0.00 0.00 99 1011.9
20260510101014 51 41 0.0 2.0 0.00 0.00 0.00 99 1011.9
20260510100520 51 33 0.0 1.0 0.00 0.00 0.00 99 1011.9
20260510100014 51 236 0.0 2.0 0.00 0.00 0.00 99 1011.9
20260510095513 51 322 0.0 2.0 0.00 0.00 0.00 99 1011.9
20260510095014 51 249 1.0 2.0 0.00 0.00 0.00 99 1011.9
20260510094516 51 111 0.0 2.0 0.00 0.00 0.00 99 1011.9
20260510094014 51 124 0.0 2.0 0.00 0.00 0.00 99 1012.2
20260510093516 51 254 0.0 2.0 0.00 0.00 0.00 99 1012.2
20260510093013 51 318 1.0 2.0 0.00 0.00 0.00 99 1012.2
20260510092514 51 334 0.0 2.0 0.00 0.00 0.00 99 1012.2
20260510092015 51 199 0.0 2.0 0.00 0.00 0.00 99 1012.2
20260510091514 51 0 0.0 2.0 0.00 0.00 0.00 99 1012.2
20260510091015 51 139 0.0 2.0 0.00 0.00 0.00 99 1012.2
20260510090513 51 177 0.0 1.0 0.00 0.00 0.00 99 1012.2
20260510090016 51 217 0.0 1.0 0.00 0.00 0.00 99 1012.2
20260510085514 51 295 0.0 2.0 0.00 0.00 0.00 99 1012.2
20260510085014 51 261 0.0 3.0 0.00 0.00 0.00 99 1012.2
20260510084514 51 182 1.0 2.0 0.00 0.00 0.00 99 1012.2
20260510084013 51 185 0.0 2.0 0.00 0.00 0.00 99 1012.2
20260510083516 51 205 0.0 2.0 0.00 0.00 0.00 99 1012.5
20260510083013 51 269 0.0 3.0 0.00 0.00 0.00 99 1012.2
20260510082515 51 133 1.0 3.0 0.00 0.00 0.00 99 1012.2
20260510082016 52 340 2.0 3.0 0.00 0.00 0.00 99 1012.2
20260510081513 52 211 0.0 3.0 0.00 0.00 0.00 99 1011.9
20260510081013 51 230 0.0 1.0 0.00 0.00 0.00 99 1011.5
20260510080513 51 352 0.0 2.0 0.00 0.00 0.00 99 1011.5
20260510080014 51 340 1.0 2.0 0.00 0.00 0.00 99 1011.5
20260510075514 51 107 0.0 2.0 0.00 0.00 0.00 99 1011.2
20260510075013 51 181 1.0 2.0 0.00 0.00 0.00 99 1011.2
20260510074513 51 87 0.0 1.0 0.00 0.00 0.00 99 1011.2
20260510074014 52 62 0.0 1.0 0.00 0.00 0.00 99 1011.2
20260510073515 52 197 1.0 2.0 0.00 0.00 0.00 99 1011.2
20260510073013 52 205 0.0 2.0 0.00 0.00 0.00 99 1011.5
20260510072514 52 68 0.0 1.0 0.00 0.00 0.00 99 1011.5
20260510072014 52 310 0.0 2.0 0.00 0.00 0.00 99 1011.5
20260510071513 52 142 0.0 3.0 0.00 0.00 0.00 99 1011.5
20260510071015 52 136 0.0 3.0 0.00 0.00 0.00 99 1011.2
20260510070514 52 73 0.0 1.0 0.00 0.00 0.00 99 1011.2
20260510070014 52 56 1.0 1.0 0.00 0.00 0.00 99 1011.2
20260510065515 52 190 1.0 2.0 0.00 0.00 0.00 99 1011.2
20260510065013 52 166 1.0 1.0 0.00 0.00 0.00 99 1011.2
20260510064514 52 62 0.0 1.0 0.00 0.00 0.00 99 1011.2
20260510064014 52 22 0.0 2.0 0.00 0.00 0.00 99 1011.2
20260510063513 52 216 0.0 1.0 0.00 0.00 0.00 99 1011.5
20260510063014 52 163 0.0 1.0 0.00 0.00 0.00 99 1011.2
20260510062516 52 21 0.0 1.0 0.00 0.00 0.00 99 1011.2
20260510062016 52 177 0.0 1.0 0.00 0.00 0.00 99 1011.2
20260510061515 52 55 0.0 2.0 0.00 0.00 0.00 99 1011.2
20260510061014 52 349 0.0 2.0 0.00 0.00 0.00 99 1011.2
20260510060513 52 159 0.0 2.0 0.00 0.00 0.00 99 1011.2
20260510060014 52 132 2.0 2.0 0.00 0.00 0.00 99 1011.2
20260510055513 52 17 0.0 2.0 0.00 0.00 0.00 99 1011.2
20260510055014 52 240 1.0 2.0 0.00 0.00 0.00 99 1011.2
20260510054514 52 225 0.0 1.0 0.00 0.00 0.00 99 1011.2
20260510054013 52 74 1.0 2.0 0.00 0.00 0.00 99 1011.2
20260510053515 52 310 0.0 2.0 0.00 0.00 0.00 99 1011.2
20260510053015 52 104 0.0 2.0 0.00 0.00 0.00 99 1011.2
20260510052514 52 186 0.0 1.0 0.00 0.00 0.00 99 1011.2
20260510052014 52 82 1.0 2.0 0.00 0.00 0.00 99 1011.2
20260510051514 52 138 2.0 2.0 0.00 0.00 0.00 99 1011.5
20260510051013 52 200 0.0 1.0 0.00 0.00 0.00 99 1011.2
20260510050513 52 269 0.0 2.0 0.00 0.00 0.00 99 1011.2
20260510050014 52 343 0.0 0.0 0.00 0.00 0.00 99 1011.5
20260510045517 52 149 0.0 1.0 0.00 0.00 0.00 99 1011.2
20260510045013 52 198 0.0 2.0 0.00 0.00 0.00 99 1011.5
20260510044513 52 37 0.0 0.0 0.00 0.00 0.00 99 1011.5
20260510044016 52 124 0.0 1.0 0.00 0.00 0.00 99 1011.5
20260510043514 52 209 0.0 2.0 0.00 0.00 0.00 99 1011.2
20260510043013 52 278 0.0 2.0 0.00 0.00 0.00 99 1011.2
20260510042515 52 235 0.0 1.0 0.00 0.00 0.00 99 1011.2
20260510042014 52 135 0.0 2.0 0.00 0.00 0.00 99 1011.2
20260510041515 52 192 0.0 1.0 0.00 0.00 0.00 99 1011.2
20260510041015 52 322 0.0 1.0 0.00 0.00 0.00 99 1011.2
20260510040513 52 326 0.0 1.0 0.00 0.00 0.00 99 1011.2
20260510040015 52 235 0.0 2.0 0.00 0.00 0.00 99 1010.8
20260510035513 52 321 0.0 1.0 0.00 0.00 0.00 99 1010.8
20260510035014 52 147 0.0 0.0 0.00 0.00 0.00 99 1010.8
20260510034514 52 354 0.0 1.0 0.00 0.00 0.00 99 1010.8
20260510034013 52 119 0.0 0.0 0.00 0.00 0.00 99 1010.8
20260510033518 52 119 0.0 1.0 0.00 0.00 0.00 99 1010.8
20260510033016 53 296 0.0 1.0 0.00 0.00 0.00 99 1010.8
20260510032514 53 309 0.0 1.0 0.00 0.00 0.00 99 1010.8
20260510032014 53 47 0.0 1.0 0.00 0.00 0.00 99 1010.8
20260510031516 53 103 0.0 0.0 0.00 0.00 0.00 99 1011.2
20260510031015 53 132 0.0 2.0 0.00 0.00 0.00 99 1010.8
20260510030516 53 177 0.0 1.0 0.00 0.00 0.00 99 1011.2
20260510030015 53 345 0.0 1.0 0.00 0.00 0.00 99 1011.2
20260510025514 53 350 1.0 1.0 0.00 0.00 0.00 99 1011.2
20260510025015 53 95 0.0 0.0 0.00 0.00 0.00 99 1011.2
20260510024513 53 199 0.0 2.0 0.00 0.00 0.00 99 1011.2
20260510024013 53 174 1.0 2.0 0.00 0.00 0.00 99 1010.8
20260510023514 53 80 0.0 1.0 0.00 0.00 0.00 99 1011.2
20260510023016 53 330 0.0 1.0 0.00 0.00 0.00 99 1011.2
20260510022513 53 174 0.0 1.0 0.00 0.00 0.00 99 1011.2
20260510022015 53 322 0.0 1.0 0.00 0.00 0.00 99 1011.2
20260510021515 53 170 1.0 1.0 0.00 0.00 0.00 99 1010.8
20260510021014 53 159 0.0 2.0 0.00 0.00 0.00 99 1011.2
20260510020513 53 333 0.0 2.0 0.00 0.00 0.00 99 1011.2
20260510020013 53 37 0.0 1.0 0.00 0.00 0.00 99 1011.2
20260510015514 53 152 1.0 2.0 0.00 0.00 0.00 99 1010.8
20260510015013 53 335 0.0 2.0 0.00 0.00 0.00 99 1010.8
20260510014514 53 139 0.0 2.0 0.00 0.00 0.00 99 1010.8
20260510014013 53 219 0.0 2.0 0.00 0.00 0.00 99 1011.2
20260510013513 53 304 1.0 2.0 0.00 0.00 0.00 99 1011.2
20260510013016 53 212 0.0 1.0 0.00 0.00 0.00 99 1010.8
20260510012515 53 218 1.0 2.0 0.00 0.00 0.00 99 1010.5
20260510012013 53 155 0.0 2.0 0.00 0.00 0.00 99 1010.5
20260510011515 53 143 1.0 2.0 0.00 0.00 0.00 99 1010.8
20260510011013 53 106 3.0 3.0 0.00 0.00 0.00 99 1010.5
20260510010514 53 0 0.0 3.0 0.00 0.00 0.00 99 1010.5
20260510010015 53 150 0.0 2.0 0.00 0.00 0.00 99 1010.5
20260510005515 53 279 1.0 1.0 0.00 0.00 0.00 99 1010.5
20260510005013 53 349 0.0 2.0 0.00 0.00 0.00 99 1010.5
20260510004514 53 208 0.0 2.0 0.00 0.00 0.00 99 1010.5
20260510004014 53 66 0.0 1.0 0.00 0.00 0.00 99 1010.5
20260510003515 53 81 0.0 2.0 0.00 0.00 0.00 99 1010.2
20260510003018 53 110 0.0 1.0 0.00 0.00 0.00 99 1010.2
20260510002514 54 25 0.0 1.0 0.00 0.00 0.00 99 1010.5
20260510002016 54 194 0.0 2.0 0.00 0.00 0.00 99 1010.2
20260510001515 54 327 0.0 2.0 0.00 0.00 0.00 99 1010.2
20260510001014 54 102 0.0 1.0 0.00 0.00 0.00 99 1010.2
20260510000513 54 77 1.0 1.0 0.00 0.00 0.00 99 1010.2
20260510000017 54 113 0.0 2.0 0.00 0.00 0.00 99 1010.2
20260509235513 55 267 0.0 2.0 0.00 0.00 0.00 99 1010.2
20260509235014 55 44 0.0 2.0 0.00 0.00 0.00 99 1010.2
20260509234515 55 15 0.0 2.0 0.00 0.00 0.00 99 1009.8
20260509234017 55 182 0.0 2.0 0.00 0.00 0.00 99 1010.2
20260509233514 55 180 0.0 2.0 0.00 0.00 0.00 99 1010.2
20260509233019 55 291 0.0 2.0 0.00 0.00 0.00 99 1010.2
20260509232514 55 332 0.0 2.0 0.00 0.00 0.00 99 1010.5
20260509232014 54 291 0.0 2.0 0.00 0.00 0.00 99 1010.2
20260509231517 55 355 1.0 2.0 0.00 0.00 0.00 99 1009.8
20260509231014 54 350 0.0 2.0 0.00 0.00 0.00 99 1009.8
20260509230514 54 328 0.0 4.0 0.00 0.00 0.00 99 1010.2
20260509230016 55 307 1.0 3.0 0.00 0.00 0.00 99 1010.2